"Pseudo-MPEC" for P10OpLi

Created 2019 Jun 14 19:09:25 UT using Find_Orb

Click here for an explanation of pseudo-MPECs

 
 Astrometry: 
     P10OpLi  C2011 09 18(YjS/1_=BK'xL7FcJCl/p[_4p!30/`N7srj\)Py%U[#\r$Ev!7+qF51
     P10OpLi  C2011 09 18LE_vFr,U2ZG`S7B6AvQWs3)wX%xI1Ju0crV6$eH92bF$_\y5RPl=F51
     P10OpLi  C2011 09 18O#uTVD?Zt)Cl_YJK\c7D/;]F;rxE$cm\^l]uLW%I#d)Mie7[cvGFF51
     P10OpLi  C2013 03 20ksy78W_m8a_O]e`Astrometryb5c7J](+([!)Mu\dg9La0h`KfFgF51
     P10OpLi  C2013 03 20UdGs!q0)V0e82Hea*)Nx!_1B_KGKL466S7a=tN9V:bu!l$OjY))jF51
     P10OpLi  C2013 03 20LisnhbOXx\I_CW(6gBxbwE@iy/sD5:c0(%9:Wvcpv,NXv;TuXQtRF51
     P10OpLi  C2013 03 20WcR@6P0RjM=L,VfcRO3(5a:1Wn`iyZA0xM+h#;AGB8sNn_k!h$]#F51
     P10OpLi  C2016 04 14@x5QlO@F0;VbCaPFVKHxcA2[qgIPJMpGokAoU\K=%3HisNB7I#*NF51
     P10OpLi  C2016 04 14jT$:'N=Cufhp[DR`a2M/lq]t9tCowNCA\!5cOR`$rNt-r'H4muw_F51
     P10OpLi  C2016 04 14l4Y_.VU_^xZ@p))C.uL\\Dc*20ZdoLx(2a9gw?[sQ!WSEe(qG?oeF51
     P10OpLi  C2016 04 14#\u]FE0D'v+@=,6g\07AK6,Ta-MWLPm49Gx7(tCI7)gMp#7h:XmQF51
     P10OpLi  C2016 06 01Glt#,%p.9//7G8eDaVM(]w+O?ya2*4w`blgqUZdq[6Y=l,EP]*%^F51
     P10OpLi  C2016 06 01f5hFI?,1tSSE.Y%L+;OANFh5FrPwuhcd1d3PJxJ#QoeeO8pDAkrgF51
     P10OpLi  C2016 06 06Y-gQrNU`l?q0,Z*L86v#!%oK#6puXP]E[==0LXVkOfw+F[X^q.LgF51
     P10OpLi  C2017 09 021wjn?redacted;4xYYsQCEcy6legxf#V$N@!+,xubFnvxqUXj`!6F51
     P10OpLi  C2017 09 02IU@H:,KJ1yB+'kSSSpORA_dfy?VIt\?o^3U/7@cY=`qJK$fT0b9NF51
     P10OpLi  C2017 09 02N9m*B@57%HFh9g+LmIfdM\i+D;d7Cl*7vF3q[$P]JrP7$^'B#.$FF51
     P10OpLi  C2017 09 02:'D/k\S^fclickD4gW_[i:+bjw@G5!i8/heren9Iu]3@?fX`0GMgF51
     P10OpLi  C2017 11 22,OHPC-84*2[tgJ2PrKGcgh(SBcGo*.yR^B9P0xbkr)p^Yhd3jMX/F51
     P10OpLi  C2018 01 11SXRpGh,LwF-DdSpG#TE:5E:GUnZ-:.?(cKT`KVGItT?A1NGWFaFlF51
     P10OpLi  C2018 01 11VnGJN.Bhap%g$?lZATu5u-=vd8d0n2Wr:?:\[,;C0Z5j!QxQAM8^F51
     P10OpLi  C2018 01 11JVbt2VaCN!bh^xDj9g!M#E).DZ)qLBu(D7VWm=Tus=W;b!.*5aoFF51
     P10OpLi  C2018 02 03RSq$um`?*=PR4+'-Edqbf%FB:-D3VDe/j*cPJGGTS\_for[iaZ.2F51
     P10OpLi  C2018 02 03BN7BJ,OI?,m^;cNY$NZX[r`3wHFsP7wE#pQKUG4]Gop%wQ]Xm/u-F51
     P10OpLi  C2018 02 03CLUCy_Z;:Xa=Nlh]9WA:7?#BW[6f0wc\-,\lgQ,y8$'_Fex#`m]QF51
     P10OpLi  C2018 02 03f`twBddR;'iH4%;UV!.I%5.LT`)nSgt'NqI85VS=yVQ$q`ZLn]R]F51
     P10OpLi  C2019 05 31kXlR;`_\`Yd4Qgfw4)vj4;N5gvrsZ+Lp!f/]'iG;tiv`f0DcT2=oF51
     P10OpLi  C2019 05 31aR6]%0qCowmpdTEkU`eD61JNT\kIwx`5#J,F?^9j;DGaSaLRx,cxF51
     P10OpLi  C2019 05 31VkSm\VjZpY7@@7:$P*F('-[h33@tPsPAwX\B8S!*MAAgELK%rS`YF51
     P10OpLi |C2019 06 03iOFI@-BKNHH,+jy8l]eg$-gPXlfS[U\\1+N'mvPS[t,s@i9.nux2807
     P10OpLi |C2019 06 03A!xN6-dr?pO]xV*N`^0[D]!4Pc\P^4=Z5;.LIsxhCM%A^0IDH3Yl807
     P10OpLi |C2019 06 03K5Z!x,7QIq@YlARkcOripVytUG-4mX#N4j@muCdawb]P-FYi*\B$807
     P10OpLi KC2019 06 06kC17j]e$9/x,_uJU6H=sRK@1Qc;g,?YO+9fOP+-jo+vT!/ILj!QdJ04
     P10OpLi KC2019 06 062\M(JY!]c,P)[5hJ*MG8-HGJKMnL%X8a+te?v((,1g`7^48vA:CEJ04
     P10OpLi  C2019 06 08eK9k*q^kWX1v.g$kti/;jIRN]k%Y_$KMrpWCT#ghvOUT@)D)xhSQF51
     P10OpLi  C2019 06 08p6vuI[x(`%W7we:x,\N\k)u',Mo9$?)T;S6m[Pr5-/2M#0Y_9;QBF51
     P10OpLi KC2019 06 11r#XSLq2kf,SVSha#Hi6um/,9$75v=lTKK70#pY4JHuP%C?osfp(s291
     P10OpLi KC2019 06 11c,0S](EkexplanationSdqjNwGDV5nXdx^bS[^#=WA#BN:JM,Wk#291
     P10OpLi KC2019 06 11!?H082ie'd]4yAlpSgtu;4yB@04w1SQ3KbK8+(#fF`F[F43jc(%K291

Station data:
(291) LPL/Spacewatch II  (N31.961669 W111.599905)  US/Arizona.  Observers J.
   V. Scotti, R. S. McMillan. 1.8-m f/2.7 reflector + CCD.
(807) Cerro Tololo Observatory, La Serena  (S30.169136 W70.805900)  Chile.
(F51) Pan-STARRS 1, Haleakala  (N20.707235 W156.255910)  US/Hawaii.
   Observers N. Primak, A. Schultz, S. Watters, J. Thiel, T. Goggia. Measurer
   PS1 Science Consortium. 1.8-m Ritchey-Chrétien + CCD.
(J04) ESA Optical Ground Station, Tenerife  (N28.300924 W16.511830)  Canary
   Islands (Spain).  Observer D. Abreu. Measurers M. Micheli, D. Koschny, E.
   Schwab, M. Busch, A. Knöfel. 1.0-m f/4.4 reflector + CCD.

Orbital elements:  P10OpLi
   Perihelion 2020 Aug 16.626285 +/- 0.000177 TT = 15:01:51 (JD 2459078.126285)
Epoch 2019 Jun 11.0 TT = JDT 2458645.5   Earth MOID: 0.7727   AutoNEOCP
M 207.16506618 +/- 0.00006          (J2000 ecliptic)
n   0.35327241 +/- 1.59e-8          Peri.  135.82545 +/- 0.00008
a   1.98181401 +/- 5.96e-8          Node   270.58639 +/- 0.00006
e   0.1261505 +/- 2.62e-7           Incl.   16.63775 +/- 0.000022
P   2.79                   H 18.4   G  0.15   U  0.8  
q 1.73180708 +/- 5.29e-7    Q 2.23182094 +/- 5.17e-7
From 39 observations 2011 Sept. 18-2019 June 11; mean residual 0".24
Residuals in arcseconds: 
110918 F51  .02-  .12+    160606 F51  .01+  .04+    190531 F51  .12-  .01+    
110918 F51  .07+  .06-    170902 F51  .20+  .28+    190531 F51  .09-  .05+    
110918 F51  .03-  .02-    170902 F51  .42-  .07-    190531 F51  .23-  .03-    
130320 F51  .00   .16-    170902 F51  .19-  .18-    190603 807  .04-  .04-    
130320 F51  .04+  .08+    170902 F51  .34+  .18+    190603 807  .08+  .06-    
130320 F51  .01-  .16+    171122 F51  .08-  .01+    190603 807  .04-  .17+    
130320 F51  .01-  .08+    180111 F51  .12+  .13-    190606 J04  .44-  .01-    
160414 F51  .04-  .05+    180111 F51  .02+  .10-    190606 J04  .48-  .31-    
160414 F51  .28-  .16+    180111 F51  .21+  .05-    190608 F51  .14-  .11+    
160414 F51  .32+  .13+    180203 F51  .02+  .09+    190608 F51  .07-  .03+    
160414 F51  .10+  .05-    180203 F51  .15-  .01+    190611 291  .78+  .90-    
160601 F51  .06+  .07+    180203 F51  .15-  .08-    190611 291  .52+  .75+    
160601 F51  .18-  .40-    180203 F51  .10+  .22+    190611 291  .55+  .26+    

Ephemerides (geocentric):
Date (UTC) HH   RA              Dec         delta   r     elong  mag " sig PA
---- -- -- --  -------------   -----------  ------ ------ -----  --- ---- ---
2019 06 14 19  15 34 32.817   -30 19 32.09  1.2526 2.2077 153.3 21.4 .014  79
2019 06 14 20  15 34 30.625   -30 18 58.38  1.2527 2.2076 153.3 21.4 .014  79
2019 06 14 21  15 34 28.436   -30 18 24.67  1.2529 2.2076 153.2 21.4 .014  79
2019 06 14 22  15 34 26.251   -30 17 50.97  1.2531 2.2076 153.2 21.4 .014  79
2019 06 14 23  15 34 24.069   -30 17 17.26  1.2533 2.2076 153.1 21.4 .014  79
2019 06 15 00  15 34 21.891   -30 16 43.56  1.2534 2.2075 153.1 21.4 .014  79
2019 06 15 01  15 34 19.717   -30 16 09.87  1.2536 2.2075 153.0 21.4 .014  79
2019 06 15 02  15 34 17.546   -30 15 36.17  1.2538 2.2075 153.0 21.4 .014  79
2019 06 15 03  15 34 15.378   -30 15 02.48  1.2539 2.2075 153.0 21.4 .014  79
2019 06 15 04  15 34 13.214   -30 14 28.79  1.2541 2.2074 152.9 21.4 .014  79
2019 06 15 05  15 34 11.054   -30 13 55.10  1.2543 2.2074 152.9 21.4 .014  79
2019 06 15 06  15 34 08.897   -30 13 21.42  1.2544 2.2074 152.8 21.4 .014  79
2019 06 15 07  15 34 06.744   -30 12 47.73  1.2546 2.2074 152.8 21.4 .014  79
2019 06 15 08  15 34 04.595   -30 12 14.05  1.2548 2.2073 152.7 21.4 .014  79
2019 06 15 09  15 34 02.449   -30 11 40.38  1.2550 2.2073 152.7 21.4 .014  79
2019 06 15 10  15 34 00.307   -30 11 06.70  1.2551 2.2073 152.7 21.4 .014  79
2019 06 15 11  15 33 58.168   -30 10 33.03  1.2553 2.2073 152.6 21.4 .014  79
2019 06 15 12  15 33 56.033   -30 09 59.36  1.2555 2.2072 152.6 21.4 .014  79
2019 06 15 13  15 33 53.901   -30 09 25.70  1.2557 2.2072 152.5 21.4 .014  79
2019 06 15 14  15 33 51.773   -30 08 52.04  1.2558 2.2072 152.5 21.4 .014  79
2019 06 15 15  15 33 49.649   -30 08 18.38  1.2560 2.2072 152.4 21.4 .014  79
2019 06 15 16  15 33 47.528   -30 07 44.72  1.2562 2.2071 152.4 21.4 .014  79
2019 06 15 17  15 33 45.411   -30 07 11.07  1.2564 2.2071 152.4 21.4 .014  79
2019 06 15 18  15 33 43.297   -30 06 37.42  1.2565 2.2071 152.3 21.4 .014  79
2019 06 15 19  15 33 41.187   -30 06 03.77  1.2567 2.2071 152.3 21.4 .014  79
2019 06 15 20  15 33 39.081   -30 05 30.13  1.2569 2.2070 152.2 21.4 .014  79
2019 06 15 21  15 33 36.978   -30 04 56.49  1.2571 2.2070 152.2 21.4 .014  79
2019 06 15 22  15 33 34.879   -30 04 22.86  1.2572 2.2070 152.1 21.4 .014  79
2019 06 15 23  15 33 32.784   -30 03 49.22  1.2574 2.2070 152.1 21.4 .014  79
2019 06 16 00  15 33 30.692   -30 03 15.59  1.2576 2.2069 152.1 21.4 .014  79
2019 06 16 01  15 33 28.603   -30 02 41.97  1.2578 2.2069 152.0 21.4 .014  79
2019 06 16 02  15 33 26.519   -30 02 08.35  1.2580 2.2069 152.0 21.4 .014  79
2019 06 16 03  15 33 24.438   -30 01 34.73  1.2581 2.2069 151.9 21.4 .014  79
2019 06 16 04  15 33 22.361   -30 01 01.12  1.2583 2.2068 151.9 21.4 .014  79
2019 06 16 05  15 33 20.287   -30 00 27.51  1.2585 2.2068 151.8 21.4 .014  79
2019 06 16 06  15 33 18.217   -29 59 53.90  1.2587 2.2068 151.8 21.4 .014  79
2019 06 16 07  15 33 16.150   -29 59 20.30  1.2589 2.2068 151.8 21.4 .014  79
2019 06 16 08  15 33 14.087   -29 58 46.70  1.2591 2.2067 151.7 21.4 .014  79
2019 06 16 09  15 33 12.028   -29 58 13.10  1.2592 2.2067 151.7 21.4 .014  79
2019 06 16 10  15 33 09.973   -29 57 39.51  1.2594 2.2067 151.6 21.4 .014  79
2019 06 16 11  15 33 07.921   -29 57 05.93  1.2596 2.2067 151.6 21.4 .014  79
2019 06 16 12  15 33 05.873   -29 56 32.35  1.2598 2.2066 151.5 21.4 .014  79
2019 06 16 13  15 33 03.828   -29 55 58.77  1.2600 2.2066 151.5 21.4 .014  79
2019 06 16 14  15 33 01.787   -29 55 25.20  1.2602 2.2066 151.5 21.4 .014  79
2019 06 16 15  15 32 59.750   -29 54 51.63  1.2603 2.2066 151.4 21.4 .014  79
2019 06 16 16  15 32 57.716   -29 54 18.06  1.2605 2.2065 151.4 21.4 .014  79
2019 06 16 17  15 32 55.686   -29 53 44.50  1.2607 2.2065 151.3 21.4 .014  79
2019 06 16 18  15 32 53.660   -29 53 10.95  1.2609 2.2065 151.3 21.4 .014  79